User: anonymous   Login
Location: Unspecified
(0.0000°N, 0.0000°E)
Time: 00:06:48
(UTC+02:00)
Language:

ASC 2 Rocket - Orbit

View from above orbital plane
View from above orbital plane
View from above satellite
View from above satellite

Ground track
Ground track

The orbit data is extracted from the following two-line orbital elements,

1 21228U 91028B   18110.22268283  .00000259  00000-0  43856-4 0  9995
2 21228  23.9981 102.2523 1142801 314.1879  37.0035 12.53353387236328
Epoch (UTC): 20 April 2018 05:20:39
Eccentricity: 0.1142801
inclination: 23.9981°
perigee height: 556 km
apogee height: 2345 km
right ascension of ascending node: 102.2523°
argument of perigee: 314.1879°
revolutions per day: 12.53353387
mean anomaly at epoch: 37.0035°
orbit number at epoch: 23632

The dashed part of the orbit path shows where the satellite is in the earth's shadow,  

DLR